Location: Mountain View
(37.3861°N, 122.0839°W)
Time: 16:25:04
(UTC-07:00)

Envisat - Pass Details

Date: 13 May 2026
Orbit: 761 x 763 km, 98.4° (Epoch: 7 June)

Event Time Altitude Azimuth Distance (km) Brightness Sun altitude
Rises 03:12:40 0° 20° (NNE) 3,229 7.4 -26.6°
Reaches altitude 10° 03:15:05 10° 27° (NNE) 2,299 6.5 -26.3°
Maximum altitude 03:19:54 43° 99° (E) 1,059 3.8 -25.7°
Enters shadow 03:21:08 36° 135° (SE) 1,182 3.8 -25.6°
